Time,TemperatureF,DewpointF,PressureIn,WindDirection,WindDirectionDegrees,WindSpeedMPH,WindSpeedGustMPH,Humidity,HourlyPrecipIn,Conditions,Clouds,dailyrainin,SoftwareType,DateUTC
2013-05-21 00:02:00,56.5,32.0,29.72,North,5,6.0,7.0,39,0.00,,,0.00,weatherlink.com 1.10,2013-05-21 06:02:00,
2013-05-21 00:17:00,56.3,31.0,29.71,NNW,339,2.0,7.0,39,0.00,,,0.00,weatherlink.com 1.10,2013-05-21 06:17:00,
2013-05-21 00:32:00,56.2,32.0,29.71,NW,314,5.0,8.0,40,0.00,,,0.00,weatherlink.com 1.10,2013-05-21 06:32:00,
2013-05-21 00:47:00,55.9,32.0,29.71,NNW,344,2.0,8.0,41,0.00,,,0.00,weatherlink.com 1.10,2013-05-21 06:47:00,
2013-05-21 01:02:00,55.6,32.0,29.71,NNW,332,7.0,11.0,41,0.00,,,0.00,weatherlink.com 1.10,2013-05-21 07:02:00,
2013-05-21 01:17:00,55.2,32.0,29.71,NNW,331,0.0,6.0,41,0.00,,,0.00,weatherlink.com 1.10,2013-05-21 07:17:00,
2013-05-21 01:32:00,54.8,32.0,29.71,NNW,334,0.0,5.0,42,0.00,,,0.00,weatherlink.com 1.10,2013-05-21 07:32:00,
2013-05-21 01:47:00,54.3,31.0,29.70,NNW,340,1.0,5.0,42,0.00,,,0.00,weatherlink.com 1.10,2013-05-21 07:47:00,
2013-05-21 02:02:00,54.3,31.0,29.70,NNW,340,1.0,6.0,42,0.00,,,0.00,weatherlink.com 1.10,2013-05-21 08:02:00,
2013-05-21 02:17:00,54.1,32.0,29.71,NNW,341,2.0,6.0,43,0.00,,,0.00,weatherlink.com 1.10,2013-05-21 08:17:00,
2013-05-21 02:32:00,54.0,32.0,29.70,North,350,1.0,6.0,43,0.00,,,0.00,weatherlink.com 1.10,2013-05-21 08:32:00,
2013-05-21 02:47:00,53.7,31.0,29.70,NNW,343,2.0,6.0,43,0.00,,,0.00,weatherlink.com 1.10,2013-05-21 08:47:00,
2013-05-21 03:02:00,53.7,31.0,29.70,NNW,342,0.0,5.0,43,0.00,,,0.00,weatherlink.com 1.10,2013-05-21 09:02:00,
2013-05-21 03:32:00,52.1,32.0,29.71,NNW,348,0.0,3.0,46,0.00,,,0.00,weatherlink.com 1.10,2013-05-21 09:32:00,
2013-05-21 03:47:00,51.4,32.0,29.71,NNW,348,0.0,0.0,47,0.00,,,0.00,weatherlink.com 1.10,2013-05-21 09:47:00,
2013-05-21 04:02:00,50.7,31.0,29.71,NNW,348,0.0,0.0,48,0.00,,,0.00,weatherlink.com 1.10,2013-05-21 10:02:00,
2013-05-21 04:17:00,50.4,32.0,29.72,NNW,348,0.0,1.0,49,0.00,,,0.00,weatherlink.com 1.10,2013-05-21 10:17:00,
2013-05-21 04:32:00,50.7,32.0,29.73,NNW,348,0.0,2.0,49,0.00,,,0.00,weatherlink.com 1.10,2013-05-21 10:32:00,
2013-05-21 04:47:00,49.9,32.0,29.73,NNW,348,0.0,0.0,50,0.00,,,0.00,weatherlink.com 1.10,2013-05-21 10:47:00,
2013-05-21 05:02:00,49.7,32.0,29.73,NNW,348,0.0,0.0,51,0.00,,,0.00,weatherlink.com 1.10,2013-05-21 11:02:00,
2013-05-21 05:18:00,48.6,31.0,29.74,NNW,348,0.0,1.0,52,0.00,,,0.00,weatherlink.com 1.10,2013-05-21 11:18:00,
2013-05-21 05:33:00,47.7,32.0,29.75,NNW,348,0.0,0.0,55,0.00,,,0.00,weatherlink.com 1.10,2013-05-21 11:33:00,
2013-05-21 05:48:00,46.9,32.0,29.75,NNW,348,0.0,0.0,56,0.00,,,0.00,weatherlink.com 1.10,2013-05-21 11:48:00,
2013-05-21 06:03:00,46.6,31.0,29.76,NNW,348,0.0,0.0,55,0.00,,,0.00,weatherlink.com 1.10,2013-05-21 12:03:00,
2013-05-21 06:18:00,46.2,32.0,29.76,ENE,60,0.0,0.0,59,0.00,,,0.00,weatherlink.com 1.10,2013-05-21 12:18:00,
2013-05-21 06:33:00,46.1,31.0,29.77,NNE,27,0.0,2.0,57,0.00,,,0.00,weatherlink.com 1.10,2013-05-21 12:33:00,
2013-05-21 06:48:00,49.0,32.0,29.77,ENE,57,1.0,4.0,53,0.00,,,0.00,weatherlink.com 1.10,2013-05-21 12:48:00,
2013-05-21 07:03:00,50.9,32.0,29.78,North,5,6.0,7.0,49,0.00,,,0.00,weatherlink.com 1.10,2013-05-21 13:03:00,
2013-05-21 07:18:00,52.3,32.0,29.78,NNE,12,2.0,6.0,46,0.00,,,0.00,weatherlink.com 1.10,2013-05-21 13:18:00,
2013-05-21 07:33:00,53.3,32.0,29.78,NNE,28,2.0,6.0,44,0.00,,,0.00,weatherlink.com 1.10,2013-05-21 13:33:00,
2013-05-21 07:48:00,53.9,32.0,29.78,NNE,15,4.0,7.0,44,0.00,,,0.00,weatherlink.com 1.10,2013-05-21 13:48:00,
2013-05-21 08:03:00,55.0,33.0,29.78,North,355,0.0,4.0,43,0.00,,,0.00,weatherlink.com 1.10,2013-05-21 14:03:00,
2013-05-21 08:18:00,55.7,33.0,29.78,NW,322,6.0,6.0,42,0.00,,,0.00,weatherlink.com 1.10,2013-05-21 14:18:00,
2013-05-21 08:33:00,56.2,33.0,29.78,NW,316,3.0,7.0,41,0.00,,,0.00,weatherlink.com 1.10,2013-05-21 14:33:00,
2013-05-21 08:48:00,57.0,33.0,29.79,North,355,1.0,5.0,40,0.00,,,0.00,weatherlink.com 1.10,2013-05-21 14:48:00,
2013-05-21 09:03:00,58.6,32.0,29.79,NNE,26,1.0,4.0,37,0.00,,,0.00,weatherlink.com 1.10,2013-05-21 15:03:00,
2013-05-21 09:18:00,59.3,33.0,29.79,NW,311,1.0,7.0,37,0.00,,,0.00,weatherlink.com 1.10,2013-05-21 15:18:00,
2013-05-21 09:33:00,60.9,34.0,29.78,North,10,3.0,5.0,36,0.00,,,0.00,weatherlink.com 1.10,2013-05-21 15:33:00,
2013-05-21 09:48:00,61.6,34.0,29.78,North,5,0.0,6.0,35,0.00,,,0.00,weatherlink.com 1.10,2013-05-21 15:48:00,
2013-05-21 10:03:00,62.6,34.0,29.77,WNW,297,3.0,6.0,34,0.00,,,0.00,weatherlink.com 1.10,2013-05-21 16:03:00,
2013-05-21 10:18:00,63.2,33.0,29.77,NNW,341,0.0,7.0,33,0.00,,,0.00,weatherlink.com 1.10,2013-05-21 16:18:00,
2013-05-21 10:33:00,63.9,33.0,29.76,North,11,2.0,8.0,31,0.00,,,0.00,weatherlink.com 1.10,2013-05-21 16:33:00,
2013-05-21 10:48:00,65.5,31.0,29.76,NNW,331,2.0,8.0,28,0.00,,,0.00,weatherlink.com 1.10,2013-05-21 16:48:00,
2013-05-21 11:03:00,66.0,32.0,29.76,NNW,334,1.0,8.0,28,0.00,,,0.00,weatherlink.com 1.10,2013-05-21 17:03:00,
2013-05-21 11:18:00,66.9,33.0,29.75,SW,225,2.0,11.0,28,0.00,,,0.00,weatherlink.com 1.10,2013-05-21 17:18:00,
2013-05-21 11:33:00,68.1,33.0,29.75,North,5,6.0,10.0,27,0.00,,,0.00,weatherlink.com 1.10,2013-05-21 17:33:00,
2013-05-21 11:48:00,67.6,32.0,29.75,NW,323,5.0,7.0,27,0.00,,,0.00,weatherlink.com 1.10,2013-05-21 17:48:00,
2013-05-21 12:03:00,69.2,33.0,29.75,West,265,2.0,8.0,26,0.00,,,0.00,weatherlink.com 1.10,2013-05-21 18:03:00,
2013-05-21 12:18:00,69.9,32.0,29.74,North,5,1.0,8.0,25,0.00,,,0.00,weatherlink.com 1.10,2013-05-21 18:18:00,
2013-05-21 12:34:00,71.3,33.0,29.73,SSW,209,3.0,11.0,24,0.00,,,0.00,weatherlink.com 1.10,2013-05-21 18:34:00,
2013-05-21 12:49:00,72.2,30.0,29.73,SE,137,1.0,8.0,21,0.00,,,0.00,weatherlink.com 1.10,2013-05-21 18:49:00,
2013-05-21 13:04:00,72.5,30.0,29.71,SSW,212,5.0,9.0,21,0.00,,,0.00,weatherlink.com 1.10,2013-05-21 19:04:00,
2013-05-21 13:19:00,73.3,27.0,29.71,WSW,250,8.0,10.0,18,0.00,,,0.00,weatherlink.com 1.10,2013-05-21 19:19:00,
2013-05-21 13:34:00,73.8,29.0,29.70,SW,229,1.0,13.0,19,0.00,,,0.00,weatherlink.com 1.10,2013-05-21 19:34:00,
2013-05-21 13:49:00,73.9,29.0,29.69,WSW,250,0.0,11.0,19,0.00,,,0.00,weatherlink.com 1.10,2013-05-21 19:49:00,
2013-05-21 14:04:00,74.6,27.0,29.68,West,271,1.0,6.0,17,0.00,,,0.00,weatherlink.com 1.10,2013-05-21 20:04:00,
2013-05-21 14:19:00,76.8,27.0,29.67,SW,215,9.0,14.0,16,0.00,,,0.00,weatherlink.com 1.10,2013-05-21 20:19:00,
2013-05-21 14:34:00,77.1,27.0,29.67,SW,232,4.0,16.0,16,0.00,,,0.00,weatherlink.com 1.10,2013-05-21 20:34:00,
2013-05-21 14:49:00,77.3,26.0,29.66,SSW,192,9.0,17.0,15,0.00,,,0.00,weatherlink.com 1.10,2013-05-21 20:49:00,
2013-05-21 15:04:00,77.8,27.0,29.65,SW,216,9.0,18.0,15,0.00,,,0.00,weatherlink.com 1.10,2013-05-21 21:04:00,
2013-05-21 15:19:00,78.6,27.0,29.64,SW,232,1.0,16.0,15,0.00,,,0.00,weatherlink.com 1.10,2013-05-21 21:19:00,
2013-05-21 15:34:00,78.7,26.0,29.64,SSW,199,6.0,12.0,14,0.00,,,0.00,weatherlink.com 1.10,2013-05-21 21:34:00,
2013-05-21 15:49:00,79.0,24.0,29.63,SE,136,0.0,9.0,13,0.00,,,0.00,weatherlink.com 1.10,2013-05-21 21:49:00,
2013-05-21 16:04:00,80.6,25.0,29.62,WNW,288,2.0,10.0,13,0.00,,,0.00,weatherlink.com 1.10,2013-05-21 22:04:00,
2013-05-21 16:19:00,80.3,23.0,29.61,South,169,5.0,7.0,12,0.00,,,0.00,weatherlink.com 1.10,2013-05-21 22:19:00,
2013-05-21 16:34:00,80.6,21.0,29.60,SW,221,0.0,12.0,11,0.00,,,0.00,weatherlink.com 1.10,2013-05-21 22:34:00,
2013-05-21 16:49:00,80.8,19.0,29.60,WSW,244,8.0,12.0,10,0.00,,,0.00,weatherlink.com 1.10,2013-05-21 22:49:00,
2013-05-21 17:04:00,80.0,19.0,29.59,SSW,203,3.0,16.0,10,0.00,,,0.00,weatherlink.com 1.10,2013-05-21 23:04:00,
2013-05-21 17:19:00,80.5,19.0,29.59,WSW,248,12.0,12.0,10,0.00,,,0.00,weatherlink.com 1.10,2013-05-21 23:19:00,
2013-05-21 17:34:00,80.7,19.0,29.59,WNW,282,9.0,11.0,10,0.00,,,0.00,weatherlink.com 1.10,2013-05-21 23:34:00,
2013-05-21 17:49:00,81.4,17.0,29.58,West,276,5.0,8.0,9,0.00,,,0.00,weatherlink.com 1.10,2013-05-21 23:49:00,
2013-05-21 18:04:00,81.2,20.0,29.58,NE,40,9.0,14.0,10,0.00,,,0.00,weatherlink.com 1.10,2013-05-22 00:04:00,
2013-05-21 18:19:00,79.1,18.0,29.58,NNW,348,10.0,15.0,10,0.00,,,0.00,weatherlink.com 1.10,2013-05-22 00:19:00,
2013-05-21 18:34:00,79.2,18.0,29.57,NNW,348,0.0,15.0,10,0.00,,,0.00,weatherlink.com 1.10,2013-05-22 00:34:00,
2013-05-21 18:49:00,78.8,18.0,29.57,NNE,25,12.0,16.0,10,0.00,,,0.00,weatherlink.com 1.10,2013-05-22 00:49:00,
2013-05-21 19:04:00,78.5,17.0,29.57,North,350,2.0,10.0,10,0.00,,,0.00,weatherlink.com 1.10,2013-05-22 01:04:00,
2013-05-21 19:19:00,77.4,19.0,29.57,NNW,348,4.0,13.0,11,0.00,,,0.00,weatherlink.com 1.10,2013-05-22 01:19:00,
2013-05-21 19:34:00,76.1,18.0,29.57,NNE,12,7.0,9.0,11,0.00,,,0.00,weatherlink.com 1.10,2013-05-22 01:34:00,
2013-05-21 19:50:00,76.2,20.0,29.57,NNE,19,6.0,7.0,12,0.00,,,0.00,weatherlink.com 1.10,2013-05-22 01:50:00,
2013-05-21 20:05:00,75.3,19.0,29.57,NNE,17,0.0,10.0,12,0.00,,,0.00,weatherlink.com 1.10,2013-05-22 02:05:00,
2013-05-21 20:20:00,74.6,21.0,29.58,North,5,1.0,8.0,13,0.00,,,0.00,weatherlink.com 1.10,2013-05-22 02:20:00,
2013-05-21 20:35:00,74.0,20.0,29.59,NNE,25,3.0,6.0,13,0.00,,,0.00,weatherlink.com 1.10,2013-05-22 02:35:00,
2013-05-21 20:50:00,73.2,21.0,29.59,NNE,22,2.0,4.0,14,0.00,,,0.00,weatherlink.com 1.10,2013-05-22 02:50:00,
2013-05-21 21:05:00,72.5,21.0,29.59,NNE,32,3.0,7.0,14,0.00,,,0.00,weatherlink.com 1.10,2013-05-22 03:05:00,
2013-05-21 21:20:00,71.8,22.0,29.60,NNE,16,0.0,1.0,15,0.00,,,0.00,weatherlink.com 1.10,2013-05-22 03:20:00,
2013-05-21 21:35:00,70.6,24.0,29.60,NNE,16,0.0,1.0,17,0.00,,,0.00,weatherlink.com 1.10,2013-05-22 03:35:00,
2013-05-21 21:50:00,69.2,22.0,29.61,NNE,16,0.0,0.0,17,0.00,,,0.00,weatherlink.com 1.10,2013-05-22 03:50:00,
2013-05-21 22:05:00,67.7,23.0,29.61,NNE,16,0.0,0.0,18,0.00,,,0.00,weatherlink.com 1.10,2013-05-22 04:05:00,
2013-05-21 22:20:00,66.6,23.0,29.61,NNE,16,0.0,0.0,19,0.00,,,0.00,weatherlink.com 1.10,2013-05-22 04:20:00,
2013-05-21 22:35:00,65.4,23.0,29.61,NNE,16,0.0,0.0,20,0.00,,,0.00,weatherlink.com 1.10,2013-05-22 04:35:00,
2013-05-21 22:50:00,64.1,23.0,29.61,NNE,16,0.0,0.0,21,0.00,,,0.00,weatherlink.com 1.10,2013-05-22 04:50:00,
2013-05-21 23:05:00,63.5,24.0,29.61,NNE,17,0.0,1.0,22,0.00,,,0.00,weatherlink.com 1.10,2013-05-22 05:05:00,
2013-05-21 23:20:00,63.2,24.0,29.61,NNE,17,0.0,1.0,22,0.00,,,0.00,weatherlink.com 1.10,2013-05-22 05:20:00,
2013-05-21 23:35:00,63.2,24.0,29.60,NNE,17,0.0,1.0,22,0.00,,,0.00,weatherlink.com 1.10,2013-05-22 05:35:00,
2013-05-21 23:50:00,63.2,24.0,29.60,NNE,17,0.0,0.0,22,0.00,,,0.00,weatherlink.com 1.10,2013-05-22 05:50:00,